Zurück zum Katalog

STARLINK-5525

AktivKommunikationVLEO
NORAD 57218·PAYLOAD·🇺🇸 United States

Gestartet Jul 7, 2023 von Vandenberg Space Force Base

Loading…

Nächste Überflüge (nächste 24 Stunden)

TLE

AktuellSource: CelesTrak SupGP

Epoche: Sep 14, 2026, 22:23 UTC

1 57218C 23094A   26257.93312500  .00029724  00000+0  10766-2 0  2578
2 57218  43.0023  41.8577 0001331 275.3426 284.0120 15.27563230    18

Verfolge STARLINK-5525 in Echtzeit mit AllMySat

Download on the App Store